STARLINK-1051 (44756 NORAD) Tracking and Keplerian Element Data

This shows tracking and keplerian element data for the satellite.

Feedback or suggestion? Click here.




ElementValue
Catalog44756
NameSTARLINK-1051
Epoch Orbit1066
Epoch Day18.25002315
Epoch Year2020
RAAN194.2188
Inclination53.0069
Eccentricity0.0003032
Argument of Perigee46.4746
Mean Anonmoly335.8953
Mean Motion15.73162088
Decay Rate0.00230073
L11 44756U 19074AV 20018.25002315 .00230073 00000-0 16013-2 0 9994
L22 44756 53.0069 194.2188 0003032 46.4746 335.8953 15.73162088 10663

Live tracking and technical data element details for STARLINK-1051 (NORAD 44756). STARLINK-1051 can be tracked NOW for your location showing map with azimuth and elevation plus other details from your city location.

Track the satellite on the map from your city or location and see movement details for azimuth, elevation, latitude, longitude, range, height, and movement on the map or in text.







IsCatalogInMostPopularTable: catalog: 44756, numindb: 9
Update: records affected: 1



GetName: 44756 STARLINK-1051

Hit Count: updated at: Mon, 20 Jan 2020 03:57:04 GMT